Regional Weather Roundup
Issued by NWS Grand Forks, ND

Home | Current Version | Previous Version | Text Only | Print | Product List | Glossary On
Versions: 1 2 3 4 5 6 7 8 9 10 11 12 13 14 15 16 17 18 19 20 21 22 23 24 25 26 27 28 29 30 31 32 33 34 35 36 37 38 39 40 41 42 43 44 45 46 47 48 49 50
000
ASUS43 KFGF 231131
RWRFGF
PRAIRIE TO PINES  WEATHER ROUNDUP
NATIONAL WEATHER SERVICE EASTERN NORTH DAKOTA/GRAND FORKS ND
600 AM CDT WED JUL 23 2014

 **SATELLITE DATA USED TO AUGMENT SKY COVER AT AUTOMATED STATIONS**
 *****  WEATHER ACROSS EASTERN NORTH DAKOTA  *****

CITY           SKY/WX    TMP DP  RH WIND       PRES   REMARKS
GRAND FORKS    MOCLDY    59  57  93 N3        30.28S
GRAND FRKS AFB PTCLDY    58  58 100 N5        30.30R
GRAND FRKS NWS   N/A     59 N/A N/A VRB2        N/A
DEVILS LAKE    CLOUDY    61  54  77 E5        30.30R
FARGO          PTCLDY    58  55  90 CALM      30.27S
WAHPETON ARPT  SUNNY     57  52  82 NE3       30.29R
$$

 ***** WEATHER ACROSS CENTRAL AND WESTERN NORTH DAKOTA  *****

CITY           SKY/WX    TMP DP  RH WIND       PRES   REMARKS
BISMARCK       CLOUDY    65  61  87 E8        30.26S
MINOT          CLOUDY    64  62  93 NE7       30.26R FOG
JAMESTOWN      PTCLDY    61  58  90 CALM      30.29R
MINOT AFB      MOCLDY    64  64 100 E10       30.25S
GARRISON         N/A     65  64  97 E9        30.25S
WILLISTON      CLEAR     65  62  90 E5        30.22S
DICKINSON      CLEAR     60  58  92 E9        30.23S
HETTINGER      CLEAR     60  57  89 SE7       30.25S
$$

 *****  OTHER AIRPORT OBSERVATIONS IN OUR AREA  *****

CITY           SKY/WX    TMP DP  RH WIND       PRES   REMARKS
WALHALLA         N/A     55  55 100 NW3         N/A
GRAFTON AIRPOR FAIR      55  55 100 N6        30.30R
VALLEY CITY AR FAIR      57  57 100 SW3       30.30R
CANDO          CLOUDY    59  55  88 E8        30.32R
CAVALIER APRT  FAIR      57  54  88 N3        30.30S
GWINNER        SUNNY     61  61 100 CALM      30.31R
SHEYENNE NWR     N/A     53  53  99 W2        29.95
ROLLA          FAIR      55  55 100 CALM      30.34R
 ***** THE ABOVE OBSERVATIONS ARE NON NWS ARE NOT QUALITY
       CONTROLLED AND MAY MIS-REPORT RAIN FOR SNOW...
$$

  *****  WEATHER ACROSS NORTHERN MINNESOTA  *****

CITY           SKY/WX    TMP DP  RH WIND       PRES   REMARKS
FLAG ISLAND    MOCLDY    61  57  88 NW5       30.27S FOG
WARROAD        CLEAR     54  50  87 NW3       30.28S
ROSEAU         HAZE      50  45  81 NW3       30.28F VSB 1/2
HALLOCK        CLEAR     55  54  94 N3        30.29R
THF RVR FALLS  CLEAR     57  54  88 N5        30.29R
BAUDETTE       CLEAR     55  54  96 CALM      30.28S
WASKISH        PTCLDY    54  54 100 NE3       30.27S
CROOKSTON      CLEAR     59  55  88 NE3       30.29R
$$
  *****  WEATHER ACROSS CENTRAL AND WEST MINNESOTA  *****

CITY           SKY/WX    TMP DP  RH WIND       PRES   REMARKS
FOSSTON        CLEAR     54  50  87 CALM      30.29S
BEMIDJI        CLEAR     50  49  97 NW5       30.28R
PARK RAPIDS    CLEAR     53  51  93 CALM      30.28R
ELBOW LAKE     FAIR      61  57  87 CALM      30.29R
WADENA         CLEAR     54  54 100 CALM      30.29R
DETROIT LAKES  PTCLDY    59  55  88 CALM      30.29S
MOORHEAD       PTCLDY    57  57 100 NE3       30.29R
FERGUS FALLS   CLEAR     59  54  82 E3        30.27F
MORRIS MN      CLEAR     52  52 100 NW5       30.29R FOG
STAPLES        PTCLDY    54  52  94 CALM      30.29R
$$
  *****  WEATHER ELSEWHERE ACROSS MINNESOTA  *****

CITY           SKY/WX    TMP DP  RH WIND       PRES   REMARKS
DULUTH         PTCLDY    56  51  84 N3        30.24R
INTRNTL FALLS  CLOUDY    60  55  83 N3        30.27R
ELY            CLEAR     48  46  93 CALM      30.26R
CLOQUET        PTCLDY    54  50  87 CALM      30.24R
WHEATON        CLEAR     54  54 100 CALM      30.30R
BRAINERD       PTCLDY    56  54  93 CALM      30.27R
HIBBING        PTCLDY    53  51  93 NW6       30.26R
ALEXANDRIA     CLEAR     59  56  89 N5        30.30R
SAINT CLOUD    CLEAR     57  53  86 NW5       30.25R
MINNEAPOLIS    PTCLDY    63  57  81 NW5       30.23R
$$

  *****  WEATHER ACROSS SOUTH DAKOTA  *****

CITY           SKY/WX    TMP DP  RH WIND       PRES   REMARKS
SIOUX FALLS    PTCLDY    58  54  86 N5        30.27R
BROOKINGS      NOT AVBL
WATERTOWN      CLEAR     55  53  93 N3        30.31R
HURON          PTCLDY    60  56  86 E3        30.27R
SISSETON         N/A     56  55  97 CALM      30.28R
ABERDEEN       PTCLDY    56  55  97 NE3       30.28R
MITCHELL       MOCLDY    62  58  86 CALM      30.26R
PIERRE         CLOUDY    65  60  84 E13       30.23R
MOBRIDGE       CLEAR     62  58  86 E8        30.24R
RAPID CITY     PTCLDY    66  57  72 SW8       30.25F
$$

  *****  SOME WEATHER IN NEARBY STATES *****

CITY           SKY/WX    TMP DP  RH WIND       PRES   REMARKS
GLASGOW MT     CLEAR     60  56  86 SE7       30.19R
GREAT FALLS MT PTCLDY    58  55  90 CALM      30.12F
CHEYENNE WY    CLOUDY    63  60  90 S8        30.39S
SCOTTSBLUFF NE CLOUDY    67  63  87 NE15      30.35R
OMAHA NE       PTCLDY    63  57  81 N6        30.22R
DES MOINES IA  PTCLDY    68  59  73 N7        30.15S
DAVENPORT IA   CLEAR     66  62  87 N10       30.13R
CHICAGO IL     PTCLDY    65  52  62 N15       30.10R
EAU CLAIRE WI  CLEAR     57  56  96 CALM      30.20R
LA CROSSE WI   CLEAR     61  58  90 N3        30.20R
$$

  *****  SOME NATIONAL WEATHER *****

CITY           SKY/WX    TMP DP  RH WIND       PRES   REMARKS
LA GUARDIA NY  MOSUNNY   74  64  71 SW10      29.97S
RALEIGH NC     FOG       72  71  97 CALM      30.07R VSB 1/2
ATLANTA GA     PTCLDY    72  69  90 CALM      30.10R
NEW ORLEANS LA MOCLDY    76  73  91 CALM      30.03R
OKLAHOMA CITY  PTCLDY    73  70  90 S3        30.12R FOG
ALBUQUERQUE NM CLEAR     70  56  61 N5        30.34F
SALT LAKE CITY PTCLDY    74  41  30 SE10      30.10R
LOS ANGELES CA CLEAR     66  61  84 CALM      29.99S
BOISE ID       MOCLDY    68  55  63 W12G21    30.03F
SEATTLE WA     CLOUDY    61  60  97 CALM      29.97F
$$

*** WEATHER ACROSS MANITOBA...SASKATCHEWAN AND ONTARIO ***
                ***ONTARIO***

CITY           SKY/WX    TMP DP  RH WIND       PRES   REMARKS
GERALDTON      PTCLDY    50  50 100 NW3       30.18R
THUNDER BAY    MOCLDY    59  57  94 W3        30.21R
SIOUX LOOKOUT  PTCLDY    50  48  93 CALM      30.26R
TORONTO        CLOUDY    75  66  73 NW14      29.87R
BIG TROUT LK   CLOUDY    57  50  77 W10       30.15S
PICKLE LAKE    PTCLDY    52  46  82 VRB2      30.24
DRYDEN         CLEAR     52  50  93 NW3       30.27R
KENORA         MOCLDY    59  52  77 N6        30.30R
$$
                *** MANITOBA***

CITY           SKY/WX    TMP DP  RH WIND       PRES   REMARKS
BRANDON        PTCLDY    54  52  94 E5        30.33R
DAUPHIN        CLEAR     46  45  93 W5        30.32S
ISLAND LAKE    PTCLDY    59  50  72 NW9       30.26R
PILOT MOUND      N/A     55  52  88 E5          N/A
THE PAS        PTCLDY    54  50  87 S2        30.29S
THOMPSON       CLEAR     45  45 100 W5        30.25R
WINNIPEG       PTCLDY    50  48  93 N3        30.32R
LYNN LAKE      CLEAR     50  46  87 SW5       30.25S
CHURCHILL      CLOUDY    59  52  77 W8        30.03R
GILLAM         CLOUDY    59  52  77 W9        30.16R
$$
                ***SASKATCHEWAN***

CITY           SKY/WX    TMP DP  RH WIND       PRES   REMARKS
ESTEVAN        CLOUDY    61  59  94 E7        30.28R
KINDERSLEY     PTCLDY    59  55  88 SE12      30.15F
LLOYDMINSTER   CLOUDY    63  55  77 SE12      30.14S
PRINCE ALBERT  PTCLDY    50  50 100 E3        30.26S
REGINA         PTCLDY    61  52  72 E12       30.27S
YORKTON        CLEAR     50  48  93 SE6       30.31S
N. BATTLEFORD  CLOUDY    63  55  77 E12       30.21S
LA RONGE       NOT AVBL
SASKATOON      MOCLDY    59  54  82 SE9       30.24F
SWIFT CURRENT  CLEAR     59  57  94 SE10G17   30.19S
$$
NOTE: THESE ARE AUTOMATED STATIONS WITH LIMITED QUALITY CONTROL
      "FAIR" INDICATES FEW OR NO CLOUDS BELOW 12,000 FEET WITH NO
      SIGNIFICANT WEATHER AND/OR OBSTRUCTIONS TO VISIBILITY.
      SKY/WX - SKY CONDITION AND SIGNIFICANT WEATHER.
      TMP - AIR TEMPERATURE.    DP   - DEWPOINT TEMPERATURE.
      RH  - RELATIVE HUMIDITY.  PRES - PRESSURE.
      HX  - HEAT INDEX.         WCI  - WIND CHILL INDEX.
$


USA.gov is the U.S. government's official web portal to all federal, state and local government web resources and services.